[[{"header":{"parameterUnit":"m.s-1","parameterCategory":1,"la1":30.2991,"la2":30.254,"lo1":-89.0895,"lo2":-89.0444,"dy":0.0017,"dx":0.0017,"nx":28,"ny":28,"refTime":"2025-02-24T09:00:00:Z","depth":0,"parameterNumber":2,"parameterNumberName":"U-component_of_WINDS"},"data":[0,0,0,0,0,0,0,0,0,0,0,0,0,0,0,0,0,0,0,0,0,0,0,0,0,0,0,0,0,0,0,0,0,0,0,0,0,0,0,0,0,0,0,0,0,0,0,0,0,0,0,0,0,0,0,0,0,0,2.217,2.2171,0,2.2214,2.2215,2.2215,2.2153,2.2151,2.2148,2.2146,2.2196,2.2199,2.2203,0,0,0,0,0,0,0,0,0,0,0,0,0,2.2038,2.2041,2.217,2.2171,2.2171,2.2214,2.2215,2.2215,2.2153,2.215,2.2148,2.2145,2.2195,2.2199,2.2203,0,0,0,0,0,0,0,0,0,0,0,0,0,2.209,2.2041,2.217,2.2145,2.2144,2.2214,2.2215,2.2215,2.2154,2.215,2.2147,2.2144,2.2194,2.2199,2.2204,2.2302,0,0,2.2219,2.2221,0,0,0,0,0,0,0,0,2.2087,2.2095,2.2148,2.2147,2.2145,2.2174,2.2186,2.2245,2.2155,2.215,2.2146,2.2142,2.2192,2.2197,2.2213,2.2304,2.2306,2.222,2.2223,2.2225,2.2226,0,0,0,0,0,0,0,2.2084,2.2093,2.2188,2.2149,2.2147,2.2134,2.2137,2.2197,2.2189,2.215,2.2146,2.2152,2.219,2.2208,2.2213,2.2307,2.222,2.2224,2.2227,2.2229,2.2484,2.2487,0,0,0,0,0,0,2.2082,2.209,2.2186,2.2189,2.2107,2.2139,2.2143,2.2169,2.2188,2.2188,2.2154,2.2148,2.2201,2.2208,2.2215,2.2333,2.2225,2.223,2.2233,2.248,2.2484,2.2488,0,0,0,0,0,0,2.208,2.2091,2.2184,2.2138,2.2149,2.2145,2.2174,2.2171,2.2188,2.2191,2.219,2.2173,2.2198,2.2208,2.2281,2.2334,2.2232,2.2237,2.2476,2.2481,2.2486,2.2569,0,0,0,0,0,0,2.2076,2.2091,2.2127,2.214,2.2152,2.2248,2.2177,2.2174,2.2197,2.219,2.2209,2.2209,2.2197,2.2274,2.2286,2.2339,2.2241,2.2471,2.2478,2.2485,2.2561,2.2576,2.2589,0,0,0,0,0,2.2072,2.2149,2.2129,2.2141,2.2196,2.2251,2.2259,2.2241,2.2201,2.2238,2.2241,2.2208,2.2325,2.2282,2.2295,2.235,2.2468,2.2476,2.2484,2.2555,2.2573,2.2589,0,0,0,0,0,0,2.2144,2.215,2.2128,2.2211,2.2231,2.2241,2.2287,2.2261,2.2294,2.2286,2.2264,2.227,2.2348,2.2356,2.2307,2.2447,2.239,2.2402,2.2439,2.2457,2.2471,2.2468,2.2245,0,0,0,0,0,2.2169,2.2211,2.2215,2.2288,2.2299,2.2292,2.2315,2.23,2.232,2.2329,2.2336,2.2359,2.2401,2.2429,2.2468,2.2562,2.2566,2.2606,2.262,2.2632,2.2643,2.2695,2.2714,2.2516,2.2516,2.2516,0,0,2.2222,2.2231,2.2259,2.2303,2.2317,2.2363,2.2299,2.2351,2.2386,2.2337,2.2407,2.2413,2.2437,2.2522,2.2559,2.2531,2.2698,2.2642,2.2652,2.2656,2.2706,2.2725,2.2741,2.2521,2.252,2.252,0,0,2.2343,2.2353,2.2416,2.2431,2.2452,2.2446,2.2462,2.2476,2.2478,2.2547,2.2512,2.2554,2.2626,2.2645,2.2664,2.2794,2.2766,2.2807,2.2881,2.2932,2.2948,2.2962,2.301,2.3028,2.2817,2.2817,2.2818,0,2.2407,2.2474,2.2452,2.2506,2.2528,2.2484,2.255,2.2565,2.2599,2.2616,2.2583,2.2673,2.2686,2.2776,2.2807,2.2824,2.2842,2.2805,2.2947,2.2961,2.2974,2.302,2.3038,2.2822,2.2822,2.2821,2.2821,0,2.2553,2.2601,2.2649,2.2682,2.2708,2.2768,2.2756,2.2786,2.2769,2.2768,2.284,2.2854,2.2895,2.2915,2.2899,2.3003,2.2985,2.295,2.2893,2.2998,2.3041,2.3058,2.283,2.2828,2.2826,2.2825,0,0,2.2722,2.2741,2.276,2.2775,2.2795,2.2832,2.289,2.293,2.2957,2.2981,2.3032,2.3094,2.3062,2.3084,2.307,2.3115,2.3219,2.3074,2.3075,2.3103,2.3338,2.3366,2.3386,2.32,2.3204,2.3206,2.3337,0,2.2845,2.2944,2.2926,2.3024,2.3068,2.3028,2.3079,2.3099,2.3099,2.3139,2.3139,2.3185,2.3138,2.3151,2.3194,2.3198,2.3267,2.3188,2.325,2.3252,2.3247,2.3408,2.3437,2.356,2.3353,2.3356,2.3358,0,2.3001,2.3031,2.3133,2.3147,2.3165,2.3211,2.3247,2.3284,2.3306,2.3303,2.3328,2.3306,2.3367,2.3307,2.3391,2.3338,2.3362,2.3368,2.3372,2.3379,2.3313,2.3422,2.3598,2.3617,2.3384,2.3382,2.338,0,2.3117,2.3182,2.3252,2.3265,2.3284,2.3318,2.3327,2.3345,2.3371,2.3402,2.3419,2.3457,2.3479,2.3511,2.3501,2.3457,2.3588,2.3527,2.359,2.3591,2.3621,2.362,2.3806,2.3633,2.3633,2.3633,2.3632,0,2.3257,2.3321,2.3304,2.3348,2.3419,2.3399,2.3471,2.3476,2.3493,2.3538,2.3505,2.3549,2.3531,2.3574,2.3567,2.3639,2.3649,2.365,2.3648,2.3654,2.3655,2.3672,2.3664,2.3637,2.3636,2.3635,2.3635,0,2.3399,2.339,2.3464,2.3475,2.3479,2.3532,2.3542,2.3584,2.3581,2.3639,2.3651,2.3649,2.3698,2.369,2.3744,2.3739,2.3831,2.3817,2.3823,2.3821,2.3885,2.3881,2.4091,2.4119,2.3926,2.3928,2.3929,0,2.349,2.3539,2.3555,2.3582,2.3594,2.3638,2.3663,2.3645,2.3674,2.3703,2.3742,2.3787,2.3823,2.3904,2.3908,2.395,2.3939,2.4009,2.3945,2.3951,2.3943,2.3941,2.3947,2.4023,2.4025,2.4027,2.4028,0,2.3654,2.3647,2.3684,2.372,2.3751,2.3779,2.3804,2.3829,2.3813,2.3847,2.3896,2.3924,2.3979,2.4026,2.4066,2.4078,2.4052,2.4048,2.4066,2.4074,2.4077,2.4079,2.3861,2.4044,2.4043,2.4041,2.4041,2.404,2.3775,2.3817,2.3835,2.3878,2.3895,2.3919,2.3959,2.3962,2.4002,2.4045,2.4032,2.4088,2.411,2.4161,2.4177,2.4222,2.4196,2.4221,2.4227,2.4234,2.4243,2.4067,2.4229,2.4229,2.4228,2.4228,2.4227,0,2.3939,2.3948,2.3988,2.4024,2.4058,2.4028,2.4055,2.4087,2.4136,2.4158,2.4194,2.4251,2.4296,2.4304,2.4348,2.4383,2.4372,2.4395,2.4394,2.4398,2.4262,2.4244,2.4403,2.4403,2.4403,2.4403,2.4403,2.4403,2.4028,2.4099,2.4094,2.4173,2.4182,2.4236,2.4254,2.4278,2.4295,2.436,2.4397,2.4401,2.4418,2.4463,2.4504,2.4506,2.4524,2.4553,2.455,2.4424,2.4407,2.439,2.4373,2.4556,2.4556,2.4681,2.4682,2.4683]},{"header":{"parameterUnit":"m.s-1","parameterCategory":1,"la1":30.2991,"la2":30.254,"lo1":-89.0895,"lo2":-89.0444,"dy":0.0017,"dx":0.0017,"nx":28,"ny":28,"refTime":"2025-02-24T09:00:00:Z","depth":0,"parameterNumber":3,"parameterNumberName":"V-component_of_WINDS"},"data":[0,0,0,0,0,0,0,0,0,0,0,0,0,0,0,0,0,0,0,0,0,0,0,0,0,0,0,0,0,0,0,0,0,0,0,0,0,0,0,0,0,0,0,0,0,0,0,0,0,0,0,0,0,0,0,0,0,0,1.1326,1.1327,0,1.1406,1.1407,1.1408,1.1418,1.1417,1.1417,1.1416,1.1497,1.1499,1.1502,0,0,0,0,0,0,0,0,0,0,0,0,0,1.1178,1.1181,1.1326,1.1327,1.1328,1.1406,1.1407,1.1408,1.1418,1.1417,1.1416,1.1416,1.1496,1.1499,1.1502,0,0,0,0,0,0,0,0,0,0,0,0,0,1.1249,1.1181,1.1326,1.1342,1.1345,1.1406,1.1407,1.1409,1.1419,1.1417,1.1416,1.1415,1.1494,1.1499,1.1503,1.1552,0,0,1.1516,1.1518,0,0,0,0,0,0,0,0,1.1245,1.1254,1.1339,1.1341,1.1344,1.1401,1.1385,1.1457,1.1419,1.1391,1.1416,1.1415,1.1466,1.1472,1.149,1.1556,1.156,1.1516,1.1519,1.1521,1.1522,0,0,0,0,0,0,0,1.124,1.1251,1.1358,1.134,1.1343,1.1345,1.1353,1.1398,1.1433,1.1393,1.1394,1.1403,1.1467,1.1486,1.1492,1.1561,1.1516,1.152,1.1523,1.1524,1.1668,1.1669,0,0,0,0,0,0,1.1232,1.1246,1.1355,1.136,1.1291,1.1348,1.1358,1.1384,1.1433,1.1439,1.1404,1.1403,1.1479,1.1487,1.1495,1.1554,1.1521,1.1525,1.1527,1.1667,1.1669,1.167,0,0,0,0,0,0,1.1229,1.1242,1.1352,1.1304,1.1318,1.1352,1.1381,1.1386,1.1405,1.1442,1.1448,1.1417,1.1478,1.1489,1.1537,1.1557,1.1527,1.1531,1.1666,1.1667,1.1669,1.1674,0,0,0,0,0,0,1.1225,1.124,1.1261,1.1304,1.132,1.1395,1.1382,1.1389,1.1413,1.1412,1.1455,1.1461,1.1478,1.1531,1.1542,1.1562,1.1534,1.1664,1.1666,1.1669,1.1672,1.1675,1.1679,0,0,0,0,0,1.1219,1.1259,1.1262,1.1275,1.1347,1.1396,1.1405,1.1424,1.1414,1.1434,1.1457,1.146,1.1553,1.1536,1.1548,1.157,1.1663,1.1666,1.1668,1.1671,1.1675,1.1678,0,0,0,0,0,0,1.1218,1.1265,1.1269,1.1324,1.1356,1.1397,1.1423,1.1428,1.1463,1.1461,1.1483,1.1492,1.1539,1.156,1.154,1.1619,1.1607,1.1612,1.1604,1.1608,1.1612,1.1606,1.1538,0,0,0,0,0,1.1224,1.1261,1.13,1.1345,1.1361,1.1389,1.1411,1.1423,1.1456,1.147,1.1496,1.1528,1.1564,1.1587,1.1623,1.1675,1.1683,1.1695,1.1699,1.1701,1.1706,1.1732,1.1737,1.1679,1.1679,1.1679,0,0,1.1237,1.1268,1.129,1.1345,1.1371,1.1407,1.14,1.144,1.1466,1.1476,1.1523,1.1543,1.158,1.1629,1.1653,1.1648,1.1723,1.1705,1.1707,1.171,1.1735,1.174,1.1745,1.1681,1.1681,1.168,0,0,1.128,1.1307,1.1346,1.1372,1.1411,1.1429,1.1438,1.1478,1.1492,1.154,1.1547,1.1578,1.164,1.1665,1.1686,1.1733,1.1737,1.1744,1.1761,1.1787,1.1791,1.1795,1.181,1.1816,1.1748,1.1748,1.1748,0,1.1291,1.1347,1.1366,1.1404,1.1427,1.1437,1.1475,1.1499,1.1547,1.1562,1.1556,1.1632,1.1658,1.1712,1.1723,1.174,1.175,1.174,1.1789,1.1793,1.1797,1.1812,1.1818,1.1749,1.1749,1.1749,1.1749,0,1.1358,1.1396,1.1423,1.1469,1.1495,1.1533,1.1556,1.158,1.1588,1.1606,1.1653,1.1683,1.1724,1.1737,1.1747,1.1792,1.1788,1.1785,1.1773,1.1803,1.1817,1.1823,1.175,1.175,1.1749,1.1749,0,0,1.1403,1.1457,1.1467,1.1486,1.1528,1.1558,1.1595,1.1634,1.1653,1.1685,1.1716,1.1767,1.1764,1.1787,1.1798,1.1821,1.1853,1.1815,1.1816,1.182,1.1903,1.1904,1.1911,1.1856,1.1857,1.1858,1.1899,0,1.1449,1.1517,1.1534,1.1591,1.1625,1.1633,1.1665,1.1693,1.1711,1.1741,1.1759,1.1794,1.1789,1.1802,1.1824,1.1845,1.187,1.1842,1.1883,1.1884,1.1873,1.1918,1.1921,1.1959,1.1905,1.1906,1.1907,0,1.1513,1.1546,1.1606,1.1641,1.1656,1.1685,1.172,1.175,1.1781,1.1792,1.1816,1.1825,1.1861,1.1847,1.1897,1.1878,1.1895,1.1907,1.1909,1.1913,1.1897,1.1923,1.1971,1.1976,1.1916,1.1915,1.1915,0,1.1538,1.1597,1.164,1.1657,1.1699,1.1719,1.1737,1.1767,1.1789,1.1819,1.1833,1.1868,1.1886,1.1912,1.1928,1.1917,1.1976,1.1964,1.1985,1.1984,1.1997,1.1996,1.2048,1.2009,1.2009,1.2009,1.2009,0,1.1587,1.1624,1.1652,1.1678,1.1718,1.1736,1.1775,1.1793,1.1819,1.1847,1.1856,1.1883,1.1903,1.1932,1.1945,1.1983,1.1992,1.2,1.2003,1.1999,1.1998,1.201,1.2008,1.2011,1.201,1.201,1.201,0,1.1623,1.1643,1.169,1.1726,1.1735,1.1763,1.1792,1.1817,1.1833,1.1869,1.1879,1.1904,1.1938,1.1957,1.2,1.2008,1.205,1.2052,1.204,1.2041,1.206,1.2057,1.2122,1.213,1.2086,1.2087,1.2087,0,1.1653,1.1681,1.1718,1.1738,1.1757,1.1789,1.181,1.1828,1.1849,1.1885,1.1905,1.1939,1.1968,1.2021,1.2043,1.2074,1.2077,1.2097,1.2082,1.2076,1.2075,1.2073,1.2075,1.2099,1.21,1.21,1.21,0,1.1703,1.1711,1.1742,1.1776,1.1801,1.1828,1.1856,1.1871,1.1892,1.1916,1.1951,1.1973,1.2015,1.2048,1.2082,1.2099,1.2102,1.2105,1.2111,1.2107,1.2098,1.2101,1.2046,1.2103,1.2103,1.2103,1.2103,1.2103,1.1736,1.176,1.1789,1.1823,1.1844,1.1869,1.1893,1.1912,1.1941,1.1977,1.1985,1.2021,1.2048,1.2093,1.2111,1.2138,1.2134,1.2144,1.2146,1.2148,1.2147,1.2094,1.2144,1.2144,1.2144,1.2144,1.2144,0,1.1785,1.1804,1.1834,1.1871,1.1897,1.1898,1.1927,1.1948,1.198,1.2005,1.2032,1.207,1.2102,1.2125,1.2156,1.2173,1.2175,1.2181,1.2179,1.2183,1.215,1.2141,1.2178,1.2178,1.2178,1.2178,1.2178,1.2178,1.1814,1.1854,1.1865,1.1914,1.1933,1.1968,1.1984,1.2006,1.2026,1.2068,1.2094,1.2109,1.2132,1.2165,1.2193,1.2199,1.221,1.2214,1.222,1.2189,1.2185,1.2182,1.2173,1.2217,1.2217,1.225,1.2251,1.2251]}]]